Location: Arapaho Elementary School
(32.9607°N, 96.7625°W)
Time: 10:39:22
(UTC+00:00)

Cosmos 1500 Rocket - Pass Details

Date: 06 July 2022
Orbit: 602 x 631 km, 82.5° (Epoch: 10 August)

Event Time Altitude Azimuth Distance (km) Brightness Sun altitude
Exits shadow 10:21:35 11° 270° (W) 1,949 5.6 -12.0°
Maximum altitude 10:22:49 12° 287° (WNW) 1,884 5.7 -11.7°
Drops below altitude 10° 10:24:28 10° 309° (NW) 2,010 6.0 -11.5°
Sets 10:28:12 0° 341° (NNW) 2,926 7.3 -10.8°
